GW1174 Weather Reports


time (UTC)temp
F
wind
direction
speed
knots
gust
knots
rain 1hr
in
rain 24hr
in
rain mn
in
humidity
%
barometer
mb
20260502163017 75 180 2.6 5.2 0.00 0.00 0.00 29 1017.4
20260502162037 75 158 4.3 7.0 0.00 0.00 0.00 28 1017.7
20260502161021 76 158 3.5 7.0 0.00 0.00 0.00 28 1017.7
20260502151017 78 180 2.6 6.1 0.00 0.00 0.00 28 1018.6
20260502123017 75 158 2.6 7.0 0.00 0.00 0.00 33 1020.9
20260502122017 75 158 3.5 7.8 0.00 0.00 0.00 32 1020.9
20260502121017 76 225 1.7 3.5 0.00 0.00 0.00 31 1021.2
20260502115017 74 158 1.7 5.2 0.00 0.00 0.00 32 1021.2
20260502114017 75 158 2.6 8.7 0.00 0.00 0.00 35 1021.5
20260502113057 74 158 2.6 7.0 0.00 0.00 0.00 35 1021.7
20260502112017 73 158 3.5 7.8 0.00 0.00 0.00 36 1021.8
20260502111017 72 158 3.5 7.8 0.00 0.00 0.00 37 1021.9
20260502110017 72 180 3.5 7.0 0.00 0.00 0.00 39 1021.9
20260502105017 72 158 5.2 10.4 0.00 0.00 0.00 39 1022.2
20260502104017 71 158 2.6 7.0 0.00 0.00 0.00 36 1022.2
20260502103017 71 203 4.3 9.6 0.00 0.00 0.00 36 1022.4
20260502102017 71 180 3.5 7.8 0.00 0.00 0.00 37 1022.7
20260502101016 71 158 2.6 6.1 0.00 0.00 0.00 38 1022.7
20260502091016 69 158 4.3 8.7 0.00 0.00 0.00 42 1023.3
20260502071016 60 0.0 0.0 0.00 0.00 0.00 62 1024.2
20260502070016 59 45 0.9 2.6 0.00 0.00 0.00 66 1024.2
20260502065016 56 0.0 0.9 0.00 0.00 0.00 75 1024.2
20260502064016 54 0.0 0.0 0.00 0.00 0.00 81 1024.2
20260502063016 50 0.0 1.7 0.00 0.00 0.00 87 1024.1
20260502062016 45 0.0 0.0 0.00 0.00 0.00 89 1023.9
20260502061016 43 0.0 0.0 0.00 0.00 0.00 89 1023.9
20260502060016 41 0.0 0.0 0.00 0.00 0.00 89 1023.8
20260502055019 40 0.0 0.0 0.00 0.00 0.00 89 1023.8
20260502054016 39 0.0 0.0 0.00 0.00 0.00 89 1023.7
20260502053016 39 0.0 0.0 0.00 0.00 0.00 89 1023.7
20260502052016 38 0.0 0.0 0.00 0.00 0.00 88 1023.7
20260502051021 37 0.0 0.0 0.00 0.00 0.00 88 1023.8
20260502050016 37 0.0 0.0 0.00 0.00 0.00 88 1023.7
20260502045016 37 0.0 0.0 0.00 0.00 0.00 88 1023.8
20260502044016 37 0.0 0.0 0.00 0.00 0.00 87 1023.7
20260502043016 37 0.0 0.0 0.00 0.00 0.00 87 1023.8
20260502042016 37 0.0 0.0 0.00 0.00 0.00 87 1024.0
20260502041016 37 0.0 0.0 0.00 0.00 0.00 87 1024.1
20260502040016 37 0.0 0.0 0.00 0.00 0.00 86 1024.0
20260502035016 37 0.0 0.0 0.00 0.00 0.00 86 1023.9
20260502034016 37 0.0 0.0 0.00 0.00 0.00 86 1024.0
20260502033036 38 0.0 0.0 0.00 0.00 0.00 86 1024.1
20260502032016 38 0.0 0.0 0.00 0.00 0.00 85 1024.1
20260502031055 38 0.0 0.0 0.00 0.00 0.00 85 1024.2
20260502030016 38 0.0 0.0 0.00 0.00 0.00 85 1024.2
20260502025015 39 0.0 0.0 0.00 0.00 0.00 85 1024.3
20260502024016 39 0.0 0.0 0.00 0.00 0.00 85 1024.3
20260502023018 39 0.0 0.0 0.00 0.00 0.00 84 1024.3
20260502022017 39 0.0 0.0 0.00 0.00 0.00 84 1024.2
20260502021017 40 0.0 0.0 0.00 0.00 0.00 83 1024.3
20260502020017 40 0.0 0.0 0.00 0.00 0.00 84 1024.4
20260502015017 41 0.0 0.0 0.00 0.00 0.00 84 1024.5
20260502014018 41 0.0 0.0 0.00 0.00 0.00 84 1024.6
20260502013017 40 0.0 0.0 0.00 0.00 0.00 84 1024.6
20260502012017 41 0.0 0.0 0.00 0.00 0.00 84 1024.6
20260502011017 41 0.0 0.0 0.00 0.00 0.00 84 1024.8
20260502010017 41 0.0 0.0 0.00 0.00 0.00 84 1024.9
20260502005038 41 0.0 0.0 0.00 0.00 0.00 84 1024.9
20260502004057 41 0.0 0.0 0.00 0.00 0.00 83 1025.0
20260502003017 41 0.0 0.0 0.00 0.00 0.00 83 1024.9
20260502002121 42 0.0 0.0 0.00 0.00 0.00 82 1024.9
20260502001017 42 0.0 0.0 0.00 0.00 0.00 81 1025.1
20260502000017 43 0.0 0.0 0.00 0.00 0.00 80 1025.2
20260501235017 43 0.0 0.0 0.00 0.00 0.00 80 1025.1
20260501234017 44 0.0 0.0 0.00 0.00 0.00 80 1025.3
20260501233017 44 0.0 0.0 0.00 0.00 0.00 80 1025.3
20260501232017 44 0.0 1.7 0.00 0.00 0.00 79 1025.4
20260501231018 44 0.0 0.0 0.00 0.00 0.00 78 1025.3
20260501230017 44 0.0 0.0 0.00 0.00 0.00 77 1025.2
20260501225017 45 0.0 0.0 0.00 0.00 0.00 76 1025.2
20260501224017 45 315 0.9 1.7 0.00 0.00 0.00 76 1025.2
20260501223017 45 90 1.7 4.3 0.00 0.00 0.00 76 1025.3
20260501222017 45 0.0 0.0 0.00 0.00 0.00 74 1025.3
20260501221017 46 0.0 0.0 0.00 0.00 0.00 74 1025.4
20260501220017 46 0.0 0.0 0.00 0.00 0.00 73 1025.4
20260501215016 47 0.0 0.0 0.00 0.00 0.00 73 1025.4
20260501214016 47 90 0.9 1.7 0.00 0.00 0.00 72 1025.4
20260501213016 48 0.0 1.7 0.00 0.00 0.00 71 1025.4
20260501212016 48 0.0 1.7 0.00 0.00 0.00 71 1025.4
20260501211016 49 0.0 0.0 0.00 0.00 0.00 70 1025.4
20260501210016 49 0.0 0.0 0.00 0.00 0.00 69 1025.5
20260501205016 49 0.0 0.0 0.00 0.00 0.00 68 1025.5
20260501204016 50 0.0 0.0 0.00 0.00 0.00 67 1025.5
20260501203016 52 0.0 0.0 0.00 0.00 0.00 64 1025.7
20260501202016 53 90 0.9 1.7 0.00 0.00 0.00 62 1025.5
20260501201016 53 0.0 0.0 0.00 0.00 0.00 62 1025.7
20260501200016 54 0.0 0.0 0.00 0.00 0.00 60 1025.6
20260501195016 55 0.0 1.7 0.00 0.00 0.00 58 1025.5
20260501194016 55 0.0 0.0 0.00 0.00 0.00 57 1025.6
20260501193016 56 0.0 0.0 0.00 0.00 0.00 56 1025.6
20260501192015 57 0.0 0.0 0.00 0.00 0.00 54 1025.6
20260501191015 58 0.0 0.0 0.00 0.00 0.00 53 1025.7
20260501190018 60 0.0 0.0 0.00 0.00 0.00 51 1025.6
20260501185018 61 0.0 0.0 0.00 0.00 0.00 49 1025.4
20260501184037 62 0.0 1.7 0.00 0.00 0.00 47 1025.3
20260501183018 63 0.0 0.0 0.00 0.00 0.00 46 1025.2
20260501182017 64 0.0 0.0 0.00 0.00 0.00 45 1025.0
20260501181037 65 0.0 1.7 0.00 0.00 0.00 42 1024.9
20260501180018 65 113 0.9 2.6 0.00 0.00 0.00 41 1024.8
20260501175037 66 90 0.9 4.3 0.00 0.00 0.00 41 1024.8
20260501174017 66 90 0.9 4.3 0.00 0.00 0.00 41 1024.7
20260501173018 67 113 1.7 5.2 0.00 0.00 0.00 39 1024.8
20260501172018 67 135 0.9 3.5 0.00 0.00 0.00 40 1024.7
20260501171017 68 90 0.9 2.6 0.00 0.00 0.00 40 1024.9
20260501170017 69 0.0 2.6 0.00 0.00 0.00 39 1025.0
20260501165037 69 90 0.9 5.2 0.00 0.00 0.00 38 1025.0
20260501164017 69 113 1.7 7.8 0.00 0.00 0.00 38 1025.2